Regional Weather Roundup
Issued by NWS Burlington, VT

Home | Current Version | Previous Version | Text Only | Print | Product List | Glossary On
Versions: 1 2 3 4 5 6 7 8 9 10 11 12 13 14 15 16 17 18 19 20 21 22 23 24 25 26 27 28 29 30 31 32 33 34 35 36 37 38 39 40 41 42 43 44 45 46 47 48 49 50
000
ASUS41 KBTV 280810
RWRBTV
VERMONT REGIONAL WEATHER ROUNDUP
NATIONAL WEATHER SERVICE BURLINGTON VT
400 AM EDT TUE JUL 28 2015

NOTE: "FAIR" INDICATES FEW OR NO CLOUDS BELOW 12,000 FEET WITH NO
SIGNIFICANT WEATHER AND/OR OBSTRUCTIONS TO VISIBILITY.

* THESE REPORTS ARE NOT UNDER NWS QUALITY CONTROL AND/OR DO NOT
  REPORT WEATHER SUCH AS PRECIPITATION AND FOG.

VTZ001>019-280900-
_____VERMONT_____


CITY           SKY/WX    TMP DP  RH WIND       PRES   REMARKS
BURLINGTON     MOCLDY    69  66  90 CALM      29.96F
MONTPELIER     CLOUDY    64  62  93 VRB5      30.03F
MORRISVILLE    MOCLDY    65  62  90 CALM      30.00S
ST. JOHNSBURY*   N/A     65  63  93 MISG      29.98F
LYNDONVILLE*   FAIR      63  62  97 N5        30.02F FOG
MIDDLEBURY*    CLOUDY    70  67  92 E3        29.98S
RUTLAND*       MOCLDY    64  59  82 NW3       30.02S
SPRINGFIELD    PTCLDY    65  63  93 CALM      30.01S FOG
HIGHGATE*        N/A     64  64  99 CALM      29.96S FOG
NEWPORT*       FAIR      62  61  97 S5        30.01S
BENNINGTON     PTCLDY    62  60  93 CALM      30.02S FOG
SUTTON*          N/A     59 N/A N/A MISG        N/A

_____LAKE CHAMPLAIN_____


CITY           SKY/WX    TMP DP  RH WIND       PRES   REMARKS

$$

NYZ007-026>031-035-052-083-280900-
_____NORTHERN NEW YORK_____


CITY           SKY/WX    TMP DP  RH WIND       PRES   REMARKS
PLATTSBURGH    FOG       64  63  96 CALM      29.95F VSB 3/4
SARANAC LAKE   PTCLDY    60  59  96 CALM      30.03S
MASSENA        CLEAR     65  61  87 CALM      29.97F
OGDENSBURG*    CLEAR     64  63  94 CALM      29.98S
POTSDAM*       CLEAR     66  61  82 SW6       29.98S
WATERTOWN      CLEAR     66  56  70 S3        29.99S
FT DRUM        PTCLDY    73  57  56 SW8       29.99S
ALBANY         PTCLDY    70  66  87 CALM      30.00S
GLENS FALLS    PTCLDY    66  65  96 VRB3      30.00S

$$
NHZ002-005-011-280900-
_____NEW HAMPSHIRE_____


CITY           SKY/WX    TMP DP  RH WIND       PRES   REMARKS
LEBANON        MOCLDY    68  65  90 CALM      30.00R
KEENE          MOCLDY    63  57  82 CALM      30.00S
MT WASHINGTON  SHOWER    48  48 100 W28         N/A  VSB 0
PLYMOUTH       TSTM      66  66 100 E8G26     30.02R VSB 3/4
WHITEFIELD     LGT RAIN  65  61  87 VRB3      30.02F

$$

_____REGIONAL QUEBEC LOCATIONS_____


CITY           SKY/WX    TMP DP  RH WIND       PRES   REMARKS
MONTREAL       CLEAR     66  64  94 CALM      29.95S
QUEBEC CITY    PTCLDY    63  61  94 NW3       29.93R
SHERBROOKE     CLEAR     63  61  94 S2        29.98F FOG

_____REGIONAL ONTARIO LOCATIONS_____


CITY           SKY/WX    TMP DP  RH WIND       PRES   REMARKS
OTTAWA         PTCLDY    64  64 100 CALM      29.98S

______KEY______
VSB  - VISIBILITY IN MILES
WCI  - WIND CHILL INDEX
HX   - HEAT INDEX
$$
NNNN



USA.gov is the U.S. government's official web portal to all federal, state and local government web resources and services.